{"data":{"norad_id":56384,"intl_designator":"2023-061L","name":"STARLINK-6153","alt_names":[],"object_type":"PAYLOAD","status":"ACTIVE","operator":null,"country":"US","launch_date":"2023-05-04","launch_site_code":"AFETR","launch_vehicle":null,"mission":null,"orbit_class":"UNKNOWN","rcs_meters":null,"size_class":null,"mass_kg":null,"dimensions":null,"purposes":["comms"],"wikipedia_slug":null,"has_3d_model":false,"image_url":null,"decayed_at":null,"tle_current":{"epoch":"2026-09-20T04:28:34.818240Z","epoch_age_seconds":139066,"freshness":"FRESH","line1":"1 56384U 23061L   26263.18651410 -.00000367  00000+0 -38303-5 0  9992","line2":"2 56384  43.0011 179.6351 0001138 259.2437 100.8287 15.27576557186498","mean_motion":15.27576557,"eccentricity":0.0001138,"inclination_deg":43.0011,"raan_deg":179.6351,"arg_perigee_deg":259.2437,"mean_anomaly_deg":100.8287,"bstar":-3.8303e-6,"rev_number":18649,"period_min":94.26696118118,"perigee_km":482.27860148867,"apogee_km":483.84020979059,"semimajor_km":6861.1964056396,"source":"CELESTRAK","updated_at":"2026-09-21T09:00:33.431984Z"}}}